ECMWFFLT1_925_rhum_192.txt.gz
RH
30 31 32 33 35 36 36 36 35 34 34 34 34 33 33 32 31 31 32 34 35 36 36 37 40 42 41 39 38 38 39 40 42 43 44 45 45 45 49 50 54 67 72 60 52 50 45 42 42 41 42 44 45 46 45 46 46 46 48 50 51 52 50
31 31 32 33 34 35 35 35 34 34 34 34 34 33 33 32 30 30 32 33 34 34 34 36 37 38 38 37 36 37 38 38 39 41 42 42 44 45 47 50 53 61 70 70 62 58 57 55 52 49 47 46 46 46 45 45 45 46 48 49 50 49 48
32 31 32 33 34 34 35 35 35 34 34 34 35 34 34 33 31 30 31 32 33 33 33 35 35 36 37 37 38 38 39 40 40 42 44 45 46 48 49 51 55 59 64 68 66 62 61 60 57 55 52 49 47 45 43 43 44 46 47 47 48 48 48
34 33 32 33 34 35 35 35 35 35 35 35 35 35 34 33 32 31 31 32 33 33 34 34 36 37 38 39 41 41 42 44 46 47 49 51 51 53 55 54 57 59 60 63 65 63 61 59 58 56 53 51 48 46 45 45 46 46 47 47 48 50 52
36 35 34 34 34 35 36 36 35 35 35 35 36 36 35 34 33 32 32 32 33 33 34 36 37 39 41 43 44 45 46 48 51 53 55 56 56 56 58 58 58 60 60 61 65 66 63 59 58 57 55 54 54 52 50 48 47 48 49 50 51 53 54
39 37 36 35 35 36 36 36 36 36 36 36 37 37 36 36 34 34 33 34 35 35 36 37 39 41 44 47 47 49 50 51 54 57 57 59 61 61 62 63 62 62 62 63 65 66 66 65 64 63 62 61 60 58 56 53 52 52 53 54 54 54 56
41 40 39 38 37 37 37 37 37 37 36 37 38 38 38 38 37 36 36 36 37 37 39 40 42 44 46 49 51 52 53 55 57 60 61 62 63 65 66 67 67 66 65 66 67 68 70 71 71 71 72 68 63 60 59 59 60 60 59 58 58 59 60
44 43 42 41 40 39 39 39 38 38 38 38 39 39 39 40 40 39 39 40 40 40 42 44 45 47 49 51 52 52 53 56 59 62 66 68 68 69 70 72 72 71 70 71 73 74 75 76 77 76 74 71 66 65 64 62 63 65 65 65 66 67 66
46 46 45 44 44 42 41 41 40 39 39 39 40 41 41 41 41 42 42 43 44 45 46 49 51 52 52 53 53 53 53 55 58 61 66 70 72 74 76 77 77 76 75 76 78 81 82 83 84 82 78 75 72 69 67 65 65 68 70 70 70 69 67
49 48 48 47 47 46 44 43 43 42 41 41 41 42 42 43 43 44 45 46 49 52 53 55 57 57 57 56 55 56 58 59 62 65 68 72 75 77 79 80 80 80 80 80 83 85 85 86 87 83 78 77 74 71 70 70 69 70 71 71 72 73 70
52 51 51 51 51 50 49 48 47 45 44 44 44 44 44 45 46 47 49 51 54 58 61 63 64 63 63 63 62 63 65 66 69 72 75 78 80 80 80 80 81 82 82 84 85 85 83 84 85 80 76 75 75 73 72 71 71 73 75 75 80 84 78
58 57 57 57 57 56 55 54 53 51 49 47 46 46 46 47 50 52 54 57 59 62 68 71 72 71 70 69 69 70 72 74 76 78 81 82 82 83 83 83 83 83 83 84 86 85 82 80 80 79 76 74 73 73 73 75 77 79 79 77 80 83 79
64 64 64 63 63 62 61 60 59 57 56 54 53 53 51 50 53 57 59 61 64 67 72 76 77 77 77 76 76 76 78 81 83 84 85 85 86 88 90 91 92 92 90 86 83 83 83 80 78 79 77 74 74 75 77 80 82 80 78 77 78 81 79
67 67 66 66 65 65 64 63 63 61 61 64 67 68 66 58 56 61 63 65 68 71 73 75 76 77 80 82 83 83 84 86 87 88 88 88 91 96 97 98 99 100 99 96 92 89 86 82 80 79 78 77 77 78 80 83 84 81 78 78 79 79 77
67 67 67 65 65 66 65 63 64 63 64 69 72 76 79 72 62 64 68 69 71 73 74 73 73 76 80 83 85 86 86 88 88 87 87 87 89 92 94 94 94 92 93 95 97 97 96 93 89 84 81 80 78 79 80 80 80 77 77 82 84 84 85
65 65 64 63 62 64 63 63 63 63 67 74 73 74 85 84 71 67 72 75 76 76 74 75 76 80 84 86 87 87 87 87 87 86 86 87 86 87 88 87 86 88 92 93 94 96 96 97 97 95 92 89 86 85 82 80 81 81 84 91 97 98 97
66 67 66 65 64 64 63 62 64 65 70 78 77 74 87 93 81 73 74 77 79 78 78 82 86 88 90 91 90 89 88 89 88 86 87 87 86 87 89 88 85 88 95 98 99 99 97 95 95 94 92 90 88 90 90 90 94 94 94 99 102 99 91
71 72 73 72 70 69 67 64 65 66 70 80 81 78 89 100 92 82 80 82 85 87 88 92 94 94 95 94 93 93 95 96 94 92 92 92 91 92 95 94 90 88 90 92 94 96 97 97 97 96 95 93 94 97 99 100 102 99 97 98 95 88 82
77 77 79 78 76 76 73 70 68 66 67 79 86 83 89 101 100 93 92 93 95 98 97 98 99 99 99 97 96 98 100 101 99 98 99 98 98 99 99 96 94 94 93 91 89 88 87 87 87 86 86 88 93 98 99 99 100 100 95 91 86 80 82
82 82 84 85 85 84 82 79 77 72 69 78 91 92 93 100 101 99 100 100 100 100 101 101 101 101 100 99 98 99 100 101 100 100 101 100 100 101 99 96 96 98 97 96 94 89 85 83 81 79 79 83 90 98 100 99 101 101 97 92 85 78 79
90 90 91 93 93 92 89 86 85 82 78 80 90 97 99 100 100 100 100 100 100 100 100 101 100 100 101 101 100 100 101 101 100 100 100 101 100 100 99 99 100 98 96 95 94 91 89 87 85 86 91 95 98 99 98 94 93 92 91 88 82 75 71
95 96 96 97 98 97 92 88 87 87 86 84 89 97 101 100 100 100 99 99 101 101 100 100 99 99 99 97 98 100 101 100 100 100 100 100 100 99 99 100 101 99 96 93 92 94 97 96 92 93 97 99 95 88 84 81 80 82 83 81 76 69 63
96 97 98 97 97 98 96 91 88 87 86 86 89 95 100 100 100 100 99 98 99 99 99 99 96 94 93 92 95 100 100 99 99 99 99 98 98 98 97 98 101 102 100 97 93 95 101 102 99 96 96 94 89 83 78 76 77 78 77 73 67 60 56
94 96 99 98 94 94 94 93 91 87 84 84 87 93 98 100 100 100 99 97 96 96 96 95 92 90 91 93 97 97 96 97 98 97 97 97 97 96 96 96 99 101 101 101 98 96 99 102 101 97 94 92 88 83 76 72 71 71 67 64 60 56 55
92 90 94 96 93 90 89 91 91 87 83 83 86 92 98 100 100 101 100 99 98 95 93 92 90 90 93 94 95 93 92 94 95 94 95 97 99 99 97 96 100 101 101 102 101 99 101 102 100 96 95 93 86 77 70 66 65 65 62 60 59 57 56
92 88 89 91 91 87 86 89 92 88 83 81 83 89 96 99 100 100 100 99 98 96 94 93 95 97 97 95 93 93 93 94 94 94 94 95 98 97 89 86 94 101 101 100 101 101 100 100 97 94 92 88 79 69 65 65 65 64 62 60 59 57 56
92 90 87 87 88 87 84 87 91 90 86 82 80 85 92 97 98 98 99 100 100 98 97 96 96 97 97 95 94 93 94 95 98 100 97 93 96 96 83 74 82 95 100 100 100 99 98 95 91 87 83 78 72 67 66 66 65 65 64 62 60 58 56
96 96 93 89 87 86 84 85 91 92 88 82 79 81 88 94 95 95 95 95 94 93 93 93 92 91 92 95 97 96 94 96 100 103 100 96 98 98 87 75 77 86 95 100 99 97 93 88 82 77 72 69 67 66 66 67 66 66 65 62 60 61 59
100 100 99 97 95 90 87 86 88 90 89 85 81 81 85 90 92 91 91 89 87 87 88 90 89 89 89 94 99 99 98 98 99 101 102 101 101 100 94 87 82 82 90 97 96 92 87 81 75 70 66 64 66 67 67 68 67 67 65 63 63 62 60
100 101 100 100 100 96 92 90 88 89 92 93 89 86 89 91 91 89 88 87 86 87 89 90 91 93 94 97 99 100 99 98 97 97 97 96 97 99 98 94 88 83 86 90 88 84 81 76 70 67 66 67 68 68 68 69 68 67 65 64 64 64 62
94 100 101 99 100 99 97 96 95 93 96 100 98 95 96 97 95 92 89 87 87 91 93 93 94 96 95 95 95 95 95 93 91 92 91 91 94 98 101 98 92 86 85 85 82 79 78 76 72 71 71 70 69 68 69 69 67 66 66 65 65 66 64
84 93 100 100 100 100 99 99 99 95 94 98 101 101 100 99 99 98 96 94 93 95 95 95 97 96 92 90 90 89 88 88 87 86 87 89 92 96 99 98 92 88 89 89 86 83 82 80 78 76 73 70 69 70 70 68 67 66 66 66 66 66 65
77 82 90 96 99 100 100 100 100 98 96 97 99 100 100 100 100 100 100 99 99 98 95 95 97 97 92 88 86 84 83 84 84 84 84 86 88 91 92 90 86 89 95 95 90 87 85 81 77 75 73 72 72 71 70 69 69 68 67 67 66 65 66
76 75 78 86 94 99 101 99 96 94 96 99 101 100 100 100 100 100 100 101 101 99 95 93 94 95 92 88 83 82 82 82 82 82 82 83 85 87 88 85 84 90 97 96 90 86 84 80 76 74 72 72 72 72 72 71 71 71 68 66 66 65 65
79 75 75 81 90 97 97 90 83 79 82 90 98 100 100 100 101 102 101 100 100 101 98 94 90 89 88 86 82 80 80 80 81 80 79 79 81 84 88 89 88 89 93 93 90 87 84 80 77 73 71 71 72 72 73 73 72 72 70 67 67 66 65
80 78 77 80 84 87 86 81 79 80 85 93 99 101 101 101 102 103 102 98 96 98 100 99 94 87 82 80 78 78 78 78 79 79 78 77 77 79 84 90 90 88 88 89 89 87 84 81 78 74 72 72 74 73 74 75 73 71 70 68 67 66 65

ECMWFFLT1_925_rhum_198.txt.gz
RH
41 40 38 38 37 37 37 37 37 37 38 39 41 41 41 41 42 43 44 43 43 43 43 45 45 44 43 43 43 41 40 39 37 36 37 37 38 37 39 41 44 51 52 42 34 32 33 33 35 38 40 43 48 53 55 57 56 54 52 50 49 48 48
43 43 42 40 39 39 37 38 37 37 38 40 41 42 43 44 45 45 45 45 45 45 44 45 45 44 43 43 44 43 42 40 39 38 38 38 39 39 39 40 42 47 52 51 44 37 35 36 37 39 41 44 46 48 49 49 49 48 47 47 47 47 46
45 44 44 43 42 41 39 39 38 38 39 40 41 42 43 43 44 45 45 45 45 44 44 44 45 45 44 44 44 44 43 42 41 40 40 39 38 39 40 40 41 44 49 53 51 45 41 39 40 41 42 43 44 44 45 46 47 47 47 46 46 45 45
49 48 46 45 44 43 42 41 40 39 39 40 41 42 42 43 44 44 44 44 44 43 43 44 44 43 43 43 44 44 43 43 43 42 41 41 40 41 42 42 43 45 47 51 53 51 46 44 44 45 47 47 47 47 47 46 47 47 47 47 46 46 46
50 51 50 49 47 45 44 42 41 40 40 40 41 41 42 43 44 44 44 44 43 43 43 43 43 42 42 43 44 44 44 43 43 43 43 43 43 43 44 45 46 48 49 52 53 52 49 48 48 49 51 51 51 51 51 50 49 48 48 49 49 49 48
52 52 52 52 51 49 47 45 43 42 41 41 41 41 42 44 44 44 44 44 44 43 43 43 42 41 42 43 43 43 44 43 42 43 44 45 45 45 46 48 50 51 53 54 54 52 51 50 50 51 53 53 53 52 51 50 50 50 51 52 52 50 49
57 56 55 54 53 53 52 50 47 45 44 42 42 42 42 43 44 45 45 45 44 43 43 43 42 42 42 42 42 41 42 42 43 43 44 44 45 46 48 50 52 53 55 56 55 55 54 53 54 54 55 55 54 54 54 54 56 56 54 52 51 49 49
59 60 59 57 56 55 55 55 52 50 47 45 44 44 44 43 44 44 44 44 44 44 44 43 42 42 42 42 41 41 40 41 42 43 45 45 46 48 49 51 52 53 54 55 56 56 56 56 57 59 60 59 58 58 58 55 57 58 55 53 51 48 47
54 56 59 60 60 59 58 57 57 55 53 52 50 48 47 46 45 45 45 45 44 44 45 44 44 43 42 42 41 40 40 40 41 42 44 46 47 49 50 51 52 54 55 57 59 61 62 63 64 64 63 63 60 58 55 53 55 58 57 58 56 53 53
56 53 54 56 58 61 62 62 62 61 59 59 58 58 56 53 50 47 46 46 47 47 46 45 45 44 43 43 42 42 41 41 42 43 43 43 44 46 49 51 54 55 56 58 63 66 68 71 74 69 63 61 59 57 58 59 63 64 62 64 67 65 61
65 61 58 57 56 57 58 60 61 62 63 63 63 67 70 70 68 62 56 52 49 49 50 49 48 46 45 45 45 44 44 43 44 44 44 44 44 43 44 47 51 56 57 59 63 66 68 73 76 70 65 65 65 66 67 66 68 70 69 72 77 78 71
72 70 68 66 63 61 59 58 58 58 59 61 61 65 70 75 79 79 76 70 62 56 53 53 53 51 49 49 47 46 46 46 46 46 46 46 46 45 44 43 44 49 53 56 61 68 71 71 71 71 71 71 71 71 70 70 72 74 74 76 80 82 77
79 77 75 73 72 72 68 65 64 62 61 60 59 61 68 75 80 82 83 82 78 72 64 60 58 57 55 53 52 51 50 50 51 51 51 51 50 49 48 47 45 43 44 47 53 62 67 66 68 73 73 71 71 72 74 76 77 75 75 78 79 78 74
84 83 81 80 78 76 73 71 69 68 68 67 64 65 72 80 85 86 85 84 84 83 78 71 66 63 61 58 56 55 55 55 56 57 58 59 58 56 53 52 51 49 48 47 49 57 63 65 69 73 72 71 73 74 75 77 76 74 75 76 75 73 73
89 87 87 87 86 81 76 73 70 69 71 71 71 73 77 78 80 83 85 84 84 84 84 82 77 71 67 64 61 59 58 58 59 61 64 66 66 63 60 57 56 54 53 54 58 64 70 72 75 76 76 76 76 75 75 75 75 74 73 73 74 76 77
96 94 90 90 92 90 85 78 71 70 73 74 77 82 83 78 75 77 79 81 83 83 82 84 84 80 74 70 67 64 62 61 63 65 69 72 72 72 70 66 63 61 60 62 67 72 76 78 80 78 75 74 72 72 72 74 79 81 79 80 84 86 85
100 98 94 91 91 95 97 92 81 78 81 83 88 94 93 88 85 82 79 80 82 83 84 85 87 86 81 76 73 70 68 67 68 70 74 76 79 82 83 80 77 76 76 76 78 80 82 82 81 81 84 86 85 84 81 81 86 86 85 89 93 94 91
97 99 99 96 94 95 96 95 90 88 89 90 95 100 99 98 98 94 90 87 84 84 88 90 91 90 87 82 79 75 73 74 74 75 78 81 85 89 92 92 89 89 91 93 94 93 93 92 89 91 97 99 99 98 95 94 93 89 88 93 97 96 93
100 100 100 100 100 95 90 93 94 92 89 90 97 102 100 99 101 99 99 97 92 91 95 95 93 93 91 88 85 80 79 84 85 82 81 85 91 95 96 96 93 91 92 97 100 99 99 99 98 99 101 100 100 101 100 99 99 96 97 99 98 97 98
94 91 91 93 94 89 88 94 95 86 82 88 97 101 100 100 101 99 100 101 98 98 100 98 96 94 92 93 92 86 86 93 95 89 85 88 95 95 93 93 93 92 92 95 97 96 94 93 91 90 90 88 88 88 87 85 88 91 96 101 101 100 101
86 87 91 91 88 86 86 88 84 78 76 82 90 97 100 100 101 100 99 100 100 100 100 99 98 95 93 95 95 91 93 99 99 95 92 92 92 89 89 92 93 94 97 98 96 93 91 88 84 81 79 77 76 77 75 74 74 77 83 91 97 100 101
88 94 99 92 85 89 94 93 90 87 81 74 77 89 98 99 100 101 101 100 99 100 100 100 100 97 95 96 96 93 93 96 98 98 98 94 90 89 94 97 94 95 99 99 96 94 92 88 84 81 78 77 78 77 76 75 75 75 77 80 85 93 99
93 96 97 91 88 92 95 92 91 92 90 82 77 80 88 95 99 99 100 101 100 100 100 100 100 98 96 97 98 95 94 95 98 100 100 96 94 96 100 100 98 98 98 97 95 96 95 92 89 87 84 82 79 75 73 72 71 72 74 77 82 91 100
97 97 95 92 91 90 87 85 84 82 83 88 89 84 82 86 89 89 93 99 101 100 100 100 100 98 97 98 100 100 99 99 100 100 99 98 99 100 100 100 101 100 98 97 99 100 100 99 95 92 89 85 81 78 78 76 71 68 71 76 84 94 101
99 98 97 96 94 89 84 84 83 77 72 76 85 90 88 83 78 79 88 98 100 99 100 100 100 100 100 100 100 101 100 100 100 100 100 100 100 101 100 100 102 101 100 100 101 100 100 100 96 91 86 83 83 87 90 88 82 75 71 75 85 96 101
101 100 100 98 96 94 92 90 88 84 76 68 68 78 88 90 83 79 83 90 96 98 99 99 100 100 100 100 100 100 100 100 100 100 100 100 100 100 100 100 100 100 100 100 99 100 99 96 93 89 86 86 91 94 96 96 92 86 80 79 87 98 102
102 102 101 100 99 98 98 96 93 89 82 74 70 73 81 87 89 86 79 78 88 98 100 99 100 100 100 100 100 100 100 100 100 100 100 100 100 100 99 99 97 96 96 95 94 95 95 93 94 95 92 92 93 93 93 96 98 97 93 89 93 100 102
103 102 99 101 103 100 97 96 95 92 88 87 89 90 87 85 90 91 82 76 86 99 101 99 100 101 100 100 100 100 100 100 100 100 99 96 95 93 91 92 94 95 97 96 95 95 96 98 100 99 95 93 92 90 91 96 101 102 101 99 99 99 96
97 98 99 101 101 97 95 97 99 95 90 88 91 96 97 94 92 91 86 81 88 98 101 99 100 100 100 100 100 100 101 100 99 97 94 91 88 87 86 88 92 95 98 99 100 101 101 101 99 95 92 92 92 91 94 99 102 103 102 101 100 96 88
96 98 100 98 94 90 91 96 95 86 81 84 91 95 97 95 92 90 88 87 91 98 101 100 100 100 100 100 101 101 101 100 97 94 92 89 88 88 88 90 92 96 99 101 101 102 102 101 99 96 94 94 94 94 97 100 102 102 103 101 95 88 81
98 98 96 93 93 92 90 88 85 79 79 90 100 100 97 97 97 97 93 86 87 96 101 100 100 101 101 100 101 101 98 96 94 92 88 86 86 88 90 90 91 94 100 103 102 102 104 103 100 97 95 93 95 97 99 101 102 102 100 96 88 81 76
98 99 97 94 94 96 93 89 86 86 92 100 103 100 96 93 92 96 98 93 90 96 101 100 99 100 101 101 102 99 95 92 90 89 86 87 89 90 92 94 94 95 99 102 101 101 102 102 99 98 95 94 98 101 102 102 103 99 93 86 81 78 76
97 97 96 95 95 96 96 93 90 91 98 102 101 99 96 89 80 81 91 99 101 101 99 98 99 99 99 100 99 95 93 92 90 90 90 91 91 90 90 90 91 91 93 95 94 94 96 97 97 98 98 97 101 103 102 101 98 93 87 83 80 77 76
94 89 90 99 103 99 97 97 94 92 94 99 102 101 97 87 74 66 72 88 101 103 99 98 99 98 97 97 96 93 93 92 91 91 92 91 90 88 87 86 86 87 87 87 87 90 94 97 100 101 101 101 102 102 101 100 95 88 84 82 80 77 75
95 88 88 94 94 89 90 95 97 95 94 98 102 100 90 79 73 69 70 79 92 100 101 100 99 96 93 91 91 90 90 88 86 86 85 85 84 83 84 84 85 85 85 84 86 90 93 97 102 102 100 99 100 100 100 96 91 86 82 81 80 78 76
99 93 87 81 76 76 80 84 89 95 97 96 96 90 78 73 77 83 84 83 87 95 101 102 101 99 96 92 90 89 87 86 84 82 79 78 77 77 80 83 84 84 85 85 86 88 90 95 100 101 100 99 98 97 95 90 85 85 84 82 81 79 77

ECMWFFLT1_925_rhum_204.txt.gz
RH
58 57 56 55 56 57 57 58 58 59 60 61 62 61 59 57 56 56 54 53 52 50 49 48 47 47 45 44 46 44 45 46 45 47 48 48 48 47 47 45 45 54 55 46 39 36 33 31 30 29 28 27 26 26 27 28 33 37 39 41 40 40 39
63 62 61 58 56 54 53 52 51 51 52 54 55 55 55 55 55 55 55 54 54 51 50 50 49 49 47 47 49 48 48 48 48 49 50 50 51 49 48 48 47 51 57 55 48 42 38 36 34 32 31 31 29 28 29 28 30 34 37 40 42 42 42
65 64 64 64 63 61 59 57 55 53 52 52 52 52 52 53 53 54 55 55 54 52 52 53 52 51 49 49 51 51 51 51 51 52 52 51 51 51 49 49 48 50 55 57 53 47 44 40 37 36 34 33 32 31 30 31 31 33 34 37 39 40 41
63 63 63 63 65 65 64 64 61 60 58 56 55 54 53 53 53 53 55 55 54 54 53 54 55 53 52 51 53 53 53 54 54 53 54 53 52 52 51 50 50 50 51 55 55 52 47 44 41 39 37 35 35 34 34 34 35 36 37 38 40 42 46
61 61 62 62 64 64 64 65 64 63 63 61 60 59 57 57 56 56 56 55 54 55 54 55 55 55 54 54 55 56 55 55 55 55 55 55 54 53 53 52 52 51 51 54 57 56 51 48 45 43 40 38 36 37 40 43 45 47 49 51 52 54 58
66 66 63 62 63 64 63 64 64 64 64 63 63 62 61 60 59 58 58 58 58 57 56 56 56 56 56 57 57 57 56 55 55 55 56 56 56 54 54 54 54 53 54 56 58 59 56 53 49 46 44 41 39 39 42 48 56 59 59 61 62 62 63
65 70 71 69 66 64 64 64 64 64 64 64 65 65 65 64 63 61 60 59 59 59 59 59 59 59 58 58 58 57 56 56 56 56 56 55 55 55 56 57 57 56 57 59 60 62 62 59 54 50 48 46 43 43 44 46 52 57 57 57 57 56 55
51 59 67 72 72 72 71 67 65 65 63 64 66 67 68 68 68 69 67 66 64 63 62 61 60 61 60 60 60 59 58 58 57 57 57 56 56 57 58 59 59 60 61 62 64 65 64 63 60 57 55 52 50 52 51 46 45 47 47 47 49 50 50
40 46 51 58 65 71 74 73 73 70 69 73 78 79 77 72 70 71 72 72 72 71 71 69 66 64 62 61 60 60 60 61 60 60 59 58 57 57 59 60 61 64 65 67 70 70 68 69 68 64 62 60 56 53 50 47 46 46 45 45 47 49 50
41 42 45 50 52 57 65 71 75 76 74 81 90 94 92 87 82 79 78 77 76 76 75 76 76 74 72 69 66 63 61 60 60 61 61 61 60 58 59 60 63 66 67 70 73 73 72 75 74 69 64 61 56 51 50 51 51 51 53 55 58 57 53
56 49 55 62 54 49 50 51 59 69 73 80 92 99 99 97 96 94 93 90 88 85 81 78 78 79 79 80 77 74 71 66 63 61 60 61 62 61 60 60 63 65 66 70 73 71 72 74 74 70 65 61 58 56 55 55 54 57 60 64 67 65 58
69 59 65 66 54 46 45 41 40 44 53 74 94 101 99 100 101 100 99 99 97 94 88 82 78 76 77 79 80 80 80 77 74 69 65 62 61 61 62 61 61 62 64 67 69 70 71 71 69 68 66 63 61 60 58 58 59 61 63 64 66 65 59
74 66 63 60 62 66 67 60 47 37 50 80 98 101 100 100 101 100 100 101 99 94 89 84 80 77 75 74 76 78 80 82 82 79 76 72 66 63 62 63 63 62 62 62 63 66 67 65 64 66 63 58 56 58 61 65 67 66 64 64 63 60 56
84 81 70 65 78 91 93 88 70 60 78 97 100 99 101 100 100 101 99 98 95 88 82 79 80 80 77 75 74 76 80 84 86 87 86 82 77 71 66 64 64 64 64 65 64 64 63 59 59 60 56 52 53 56 60 64 66 65 64 64 63 59 56
93 93 83 79 92 102 103 95 80 80 97 103 98 100 101 99 100 100 98 96 90 84 81 82 84 83 80 78 76 75 79 85 89 93 94 90 86 82 76 71 68 65 66 67 66 65 63 60 59 57 55 54 54 55 56 57 59 60 62 65 67 67 69
91 91 90 90 94 95 89 79 75 87 101 101 99 101 100 99 101 99 95 91 89 92 94 93 91 87 83 80 77 76 79 85 92 99 100 97 94 89 84 80 76 72 69 68 67 66 64 62 62 61 60 58 56 56 57 60 64 66 67 72 77 81 82
77 82 88 89 83 77 77 80 87 98 103 99 100 101 99 100 101 100 96 93 94 97 96 95 96 95 94 91 85 83 82 85 93 100 100 100 99 96 92 88 84 80 78 75 74 73 71 70 69 68 67 64 62 60 59 64 72 73 73 78 87 91 87
69 73 76 74 74 80 91 97 99 99 98 99 101 99 98 99 100 100 100 98 97 93 92 97 98 95 98 99 95 93 93 93 98 101 100 100 100 99 99 94 89 87 84 81 81 85 89 89 85 79 75 72 69 64 62 65 69 70 74 82 88 88 85
81 83 72 64 74 93 102 99 93 87 87 95 99 96 95 99 100 101 101 100 99 97 96 96 92 90 97 101 100 100 99 99 100 100 100 101 100 100 100 97 94 92 88 84 83 86 92 98 97 89 83 82 80 72 66 64 63 65 74 81 82 82 86
90 95 84 75 85 98 95 87 81 73 71 84 96 94 94 99 101 101 101 100 100 100 97 92 92 96 95 89 89 96 100 100 100 100 100 100 100 100 100 98 97 95 91 89 86 84 88 95 98 93 87 89 91 81 70 69 70 71 73 74 76 79 83
88 93 89 87 91 90 80 73 69 65 71 87 98 98 97 99 98 97 100 101 101 100 99 98 99 95 85 76 78 90 99 101 99 100 101 100 100 100 100 99 100 98 94 92 90 90 94 98 99 97 93 96 98 89 79 79 80 78 76 74 75 79 81
85 89 90 88 84 81 79 76 69 74 89 98 96 95 96 96 96 98 100 101 101 100 100 101 99 91 81 76 78 88 99 102 100 100 101 100 100 100 100 100 101 99 98 96 95 97 100 100 100 100 99 100 101 96 90 88 86 86 88 87 85 84 85
88 93 95 89 85 86 88 80 73 83 100 97 84 80 83 88 93 97 97 98 101 102 100 100 99 93 85 82 86 95 101 100 99 100 100 99 100 100 100 100 100 100 100 99 99 101 100 100 100 100 100 100 100 99 97 96 95 96 98 99 96 92 90
92 98 100 97 97 97 88 78 80 94 102 92 75 65 65 73 80 84 89 97 100 98 99 100 98 95 97 97 97 99 100 99 100 101 100 100 101 100 100 100 99 100 101 101 101 101 100 100 100 100 100 100 100 100 100 99 100 101 99 97 94 91 90
96 99 102 100 101 98 87 84 93 98 89 75 66 64 69 75 76 78 90 101 98 92 95 101 100 99 101 95 86 88 97 100 100 99 99 100 100 99 100 101 100 100 101 101 101 101 100 100 100 99 100 100 100 100 100 100 101 100 96 94 93 92 94
99 102 103 101 99 96 94 95 94 85 74 70 74 81 83 80 78 84 97 103 98 89 89 94 99 102 99 87 80 89 100 101 98 99 100 99 98 99 100 100 100 100 100 100 101 100 99 99 100 100 101 100 100 100 100 100 98 94 93 93 93 96 98
101 102 101 101 99 98 99 96 87 80 80 85 90 91 85 83 90 99 101 100 97 92 87 86 91 98 98 90 83 86 95 100 99 99 98 97 98 100 100 100 100 100 100 100 100 100 100 100 101 101 100 100 101 101 99 97 93 90 91 91 91 96 100
102 101 100 101 101 101 100 96 92 92 94 95 95 92 87 90 100 103 101 101 101 95 86 82 85 91 95 94 86 81 87 97 101 99 98 98 99 99 100 100 100 100 100 101 101 101 102 102 101 101 100 101 101 100 98 96 94 91 88 88 91 95 98
99 101 102 101 100 102 103 101 100 99 96 95 94 91 88 90 93 95 100 104 99 88 81 81 84 90 96 99 96 90 90 96 100 101 100 100 100 100 100 100 100 100 100 100 101 101 101 101 101 100 101 102 101 99 98 97 97 95 92 92 97 98 96
99 100 102 101 101 102 103 104 103 100 97 97 95 90 90 91 87 89 98 100 91 81 78 77 79 86 95 102 102 98 97 99 100 100 101 101 100 101 101 100 100 101 100 100 101 101 100 100 101 101 101 101 100 100 101 101 100 99 99 100 102 101 98
100 100 99 99 102 101 98 99 101 100 99 99 97 96 96 92 87 92 98 94 83 76 74 78 83 86 91 98 102 100 101 103 101 100 101 101 100 99 99 97 96 99 100 100 100 101 101 100 100 98 97 97 97 98 101 102 101 101 101 102 102 100 97
100 100 99 100 102 100 98 98 99 100 100 99 100 101 98 91 93 99 94 82 74 71 74 87 99 98 93 95 99 100 100 102 101 101 102 100 98 97 96 92 91 93 94 94 95 97 98 99 98 98 96 97 98 99 101 102 102 102 101 102 102 100 97
99 99 98 98 98 98 100 101 100 100 101 100 100 101 98 95 99 99 86 72 69 72 77 88 100 101 97 98 98 99 101 102 100 101 103 101 98 96 92 89 90 90 89 89 92 94 95 97 98 98 100 101 101 101 101 102 103 103 103 103 102 101 100
96 92 87 87 86 85 91 98 99 98 101 100 100 100 100 100 100 94 82 72 69 70 76 87 97 99 99 100 99 98 100 101 100 100 103 103 101 99 94 90 90 90 89 91 94 95 96 98 98 98 100 101 101 101 103 104 105 105 104 104 104 102 101
94 88 84 85 83 81 83 86 84 88 97 102 101 100 99 99 96 90 83 78 73 69 73 85 97 101 101 100 100 98 97 97 97 97 99 100 100 100 98 93 91 90 90 92 94 95 96 98 99 99 100 101 100 100 101 101 102 102 102 102 103 103 101
95 89 86 85 84 85 85 79 76 84 95 97 92 88 88 93 99 99 92 85 78 75 75 79 88 99 103 101 100 99 97 95 94 94 94 96 97 97 96 93 89 86 86 86 89 92 93 95 96 97 98 100 101 100 100 99 97 97 97 98 101 102 102

ECMWFFLT1_925_rhum_210.txt.gz
RH
73 75 76 78 81 85 89 93 96 98 98 97 95 94 92 89 87 87 86 86 86 85 84 83 81 80 79 77 76 74 71 67 64 61 60 59 57 55 54 52 49 49 46 40 34 32 31 28 27 26 26 26 24 23 22 21 20 20 19 19 20 20 19
72 73 75 76 79 81 85 88 91 94 97 98 99 99 98 97 96 96 95 95 95 94 92 91 90 89 88 88 87 85 83 78 75 72 69 67 65 61 59 56 55 53 51 48 41 36 35 34 32 30 29 30 30 29 27 26 23 22 22 21 20 21 21
72 72 72 72 73 74 76 79 82 84 86 88 91 94 96 98 98 99 99 99 99 99 97 95 95 94 92 92 91 90 89 87 83 80 77 74 72 69 67 63 60 58 56 54 49 42 39 38 36 34 33 33 33 32 32 31 30 28 25 25 24 22 22
60 67 70 72 73 72 73 74 78 83 84 84 83 83 84 86 89 92 94 95 96 97 97 93 92 93 90 88 89 90 90 89 87 85 83 81 78 75 74 71 68 66 63 61 56 50 45 41 39 38 37 37 35 35 35 35 34 33 30 29 28 26 26
43 51 56 63 68 70 73 74 76 80 85 88 90 88 85 81 79 80 81 83 84 86 90 89 88 89 86 83 84 87 88 87 84 83 84 85 83 81 79 77 75 73 71 69 63 57 51 45 43 41 40 41 40 39 39 38 38 36 35 34 31 30 30
40 43 43 47 49 53 61 66 69 74 80 86 92 93 92 89 85 82 78 76 75 75 77 78 81 83 82 79 77 79 82 79 76 77 80 82 82 82 82 80 79 77 75 73 68 62 56 51 48 46 43 44 45 44 43 43 42 40 38 37 35 34 33
37 38 41 42 38 37 42 46 52 59 66 77 87 91 93 96 97 94 88 82 78 75 74 72 72 73 74 76 75 76 77 75 73 72 73 75 75 76 77 77 77 77 76 74 71 67 62 57 54 51 49 48 47 47 46 46 46 45 43 40 37 37 35
37 35 37 38 35 34 35 37 39 41 52 75 92 95 96 99 100 99 97 93 85 81 81 79 78 75 73 74 74 76 77 78 80 80 77 76 73 71 73 76 77 77 75 74 71 69 66 62 59 56 53 51 50 50 50 48 48 48 48 45 41 39 38
40 37 34 34 32 32 33 38 42 43 61 90 101 99 100 100 100 100 100 99 95 89 85 84 86 86 84 82 81 79 79 78 79 83 84 84 81 76 75 77 77 75 72 70 69 68 66 63 61 59 56 55 54 53 52 50 50 50 49 49 47 44 41
38 37 36 36 33 32 32 34 38 45 70 97 101 98 101 100 99 101 99 100 100 96 92 88 86 85 85 86 85 84 84 83 81 81 82 83 84 84 83 82 80 76 71 68 66 66 65 64 63 61 59 59 57 55 54 52 52 52 51 50 51 50 47
50 41 36 37 34 34 34 32 34 39 57 86 98 99 101 99 99 101 99 100 100 99 99 96 91 88 84 81 82 81 80 81 82 83 84 84 83 85 87 86 84 80 76 72 68 65 65 65 65 65 64 63 61 59 57 55 53 53 53 51 51 50 50
73 52 38 40 37 36 35 33 34 33 46 79 100 100 100 100 100 100 99 100 100 99 101 100 98 96 88 77 74 74 73 72 73 75 79 82 83 85 88 90 89 85 80 77 74 70 69 67 67 68 68 67 65 62 60 59 57 55 55 54 53 51 50
81 55 42 46 44 42 40 36 33 34 55 90 103 99 100 101 99 100 100 100 100 100 100 100 100 100 94 82 72 69 69 67 66 66 67 70 74 77 81 85 90 92 90 86 81 75 73 72 71 71 71 69 66 64 63 64 62 60 60 59 57 54 52
84 59 48 51 52 53 49 41 36 47 76 100 101 98 101 101 99 100 99 99 100 100 100 99 97 97 98 94 81 72 68 65 62 62 61 62 64 67 70 73 78 85 92 95 94 88 82 80 78 75 73 71 68 66 65 65 65 64 63 61 58 56 56
83 63 53 54 57 59 56 45 41 64 95 103 98 100 101 99 100 100 97 98 100 99 97 96 95 95 99 100 93 83 77 72 66 61 59 60 61 60 63 65 65 69 75 82 89 93 90 88 86 81 77 75 73 70 67 65 63 62 60 60 60 60 60
81 72 66 63 59 60 62 53 46 68 97 101 98 101 100 99 101 98 96 99 100 98 96 96 98 100 100 100 97 91 87 83 77 75 77 80 78 75 75 75 75 77 78 77 81 87 90 92 92 90 88 86 82 77 72 69 68 68 67 67 67 66 63
89 87 84 77 65 61 67 62 54 66 89 98 100 101 99 100 99 96 95 98 100 99 96 94 96 98 100 102 100 98 97 95 92 94 97 98 96 94 94 94 94 96 95 92 91 91 92 96 98 99 98 97 94 90 84 77 74 74 74 72 69 67 65
96 97 95 84 68 62 68 69 64 69 87 100 101 99 100 100 97 95 96 95 95 95 93 92 94 95 95 97 98 98 96 94 96 100 99 96 95 95 94 94 95 98 99 99 97 95 95 98 98 98 99 99 99 100 96 89 81 76 75 73 70 67 64
101 99 90 78 68 65 69 73 71 71 85 101 102 98 101 100 97 96 94 88 86 88 90 95 99 93 83 82 90 97 98 97 99 99 96 93 92 93 93 93 93 96 98 98 98 98 98 99 95 91 92 95 97 99 100 98 92 84 77 74 73 69 66
94 89 81 76 75 70 66 72 75 74 82 98 104 100 100 101 98 94 89 84 84 87 89 93 96 92 86 86 89 89 92 98 98 94 92 91 89 91 94 95 96 97 97 96 99 99 98 99 98 95 95 96 97 97 99 101 100 94 85 78 74 73 71
77 80 79 76 73 70 68 73 74 69 71 87 100 101 99 101 99 93 90 91 90 89 89 91 92 92 95 98 92 81 83 92 94 91 92 91 90 92 95 97 98 98 97 97 98 97 94 94 97 98 98 98 97 96 96 99 101 99 95 88 80 77 75
69 78 83 77 71 77 85 83 72 66 72 87 100 103 101 101 100 97 98 99 97 93 91 91 94 97 99 102 100 94 95 99 97 97 98 95 94 96 97 97 95 91 90 91 92 92 91 91 92 93 91 92 94 94 95 98 100 100 100 97 90 83 79
77 83 88 83 78 83 91 89 79 72 76 82 86 92 100 102 101 100 101 101 101 98 95 94 97 101 100 100 101 100 101 101 100 100 100 98 99 99 99 99 96 91 90 88 87 88 88 87 90 91 88 88 90 91 94 99 99 97 99 100 96 90 85
81 82 82 79 78 79 83 88 87 84 85 84 79 83 96 104 102 100 100 102 101 97 96 98 99 100 100 99 98 98 98 98 97 98 99 100 100 99 100 100 96 89 87 86 86 88 88 85 87 88 87 87 89 90 95 99 96 94 98 101 100 96 92
79 79 79 78 78 78 78 83 86 87 91 94 89 86 93 98 95 91 93 99 100 95 96 100 100 99 98 94 91 90 90 88 87 90 97 101 100 100 100 100 95 88 83 82 83 84 85 85 86 87 86 86 89 94 98 99 97 97 99 101 100 100 98
81 80 81 80 79 81 83 86 88 88 90 94 95 94 94 94 92 88 91 95 93 90 91 92 95 100 100 93 87 84 82 79 76 77 85 95 99 100 98 94 92 90 88 85 82 82 83 83 83 85 86 87 93 99 100 100 100 100 100 100 100 101 101
84 81 80 81 82 83 86 87 87 88 88 89 92 92 91 90 90 89 89 88 84 84 86 85 90 99 98 89 82 78 76 76 75 72 78 88 94 96 96 94 94 96 96 94 89 86 85 84 83 85 88 93 99 101 100 100 100 100 100 100 101 101 101
87 85 85 85 85 85 86 85 82 83 87 91 93 93 92 90 88 86 85 84 84 87 87 84 87 93 88 77 72 71 72 75 74 72 76 87 94 97 97 98 98 98 99 98 97 95 91 90 92 94 96 98 100 100 100 100 100 100 100 100 101 101 99
95 93 90 87 85 83 81 81 81 86 93 97 99 99 98 95 91 89 89 90 92 92 90 85 83 81 76 71 68 69 70 72 73 74 77 84 93 96 96 97 97 96 96 96 97 98 96 95 97 99 99 100 100 100 101 100 99 100 101 100 101 99 96
101 98 94 91 89 86 83 85 90 96 99 99 100 100 100 98 97 95 92 92 93 92 88 84 79 73 71 70 69 70 72 74 78 82 82 83 86 89 93 95 93 91 95 99 99 99 99 98 99 100 100 100 100 100 100 100 100 101 100 100 100 97 92
103 101 97 95 92 90 91 96 99 100 99 99 99 100 100 100 100 98 93 93 97 94 85 78 74 71 70 70 69 72 76 79 83 87 87 87 88 88 88 91 90 90 95 98 97 97 99 100 100 100 100 100 100 100 100 99 100 100 100 100 99 93 88
97 97 96 97 97 96 98 100 100 99 99 100 100 100 100 100 100 98 97 98 99 93 82 75 73 71 70 71 71 74 79 83 86 89 89 91 92 89 87 89 93 96 97 96 94 94 95 98 99 99 100 100 100 100 100 100 100 100 100 100 98 91 88
94 94 90 89 94 100 104 103 101 100 100 99 100 100 100 100 101 100 100 100 95 87 79 76 75 73 73 73 73 77 83 86 88 90 91 92 93 93 93 95 98 98 98 99 98 95 94 97 99 99 99 100 100 100 100 100 100 100 100 100 96 91 90
92 93 88 80 83 96 105 103 97 97 99 100 100 100 100 101 98 93 91 92 90 85 81 80 78 76 76 76 76 80 86 89 91 93 94 94 94 95 97 99 100 100 100 99 97 96 94 96 99 101 99 99 99 100 100 100 100 100 100 98 94 90 89
81 87 90 83 80 88 95 91 83 82 87 95 100 101 100 96 86 79 79 83 84 83 83 85 85 82 80 80 81 85 89 93 95 96 96 96 97 97 98 99 99 99 99 98 96 97 97 95 98 102 100 97 98 99 98 96 97 98 98 95 92 89 89
84 89 93 90 84 85 86 80 73 72 79 93 102 102 96 88 79 79 85 88 87 88 90 92 93 91 88 88 90 92 94 96 98 99 99 100 102 100 99 100 100 100 101 101 99 99 98 96 98 101 101 98 99 98 96 94 95 97 97 94 91 89 88